Home   Weather   Cape Canaveral   Past weeks

Flag for USA Past Weather in Cape Canaveral, Florida, USA — Yesterday and Last 2 Weeks

Now
67 °F

Passing clouds.


Feels Like: 67 °F
Forecast: 62 / 83 °F
Wind: 13 mph from Northwest

Location: Cape Kennedy

Current Time: Apr 25, 2017 at 1:21:20 am

Latest Report: Apr 25, 2017 at 12:58 am


Visibility: 10 mi

Pressure: 29.76 "Hg

Humidity: 70%

Dew Point: 56 °F

Location of Cape CanaveralLocation

Past Weather in Cape Canaveral — Graph

°F

Cape Canaveral Temperature Yesterday

Maximum temperature yesterday: 89 °F (at 2:58 pm)
Minimum temperature yesterday: 67 °F (at 1:58 am)
Average temperature yesterday: 76 °F

High & Low Weather Summary for the Past Weeks

 TemperatureHumidityPressure
High89 °F (Apr 24, 2:58 pm)94% (Apr 24, 7:33 am)30.29 "Hg (Apr 24, 7:33 am)
Low56 °F (Apr 17, 6:58 am)37% (Apr 24, 3:58 pm)29.64 "Hg (Apr 24, 3:58 pm)
Average75 °F62%30.10 "Hg
* Reported Apr 9 11:58 pm — Apr 24 11:58 pm, Cape Canaveral, Weather by CustomWeather, © 2017

Note: Actual official high and low records may vary slightly from our data, if they occured in-between our weather recording intervals... More about our weather records

Advertising

Cape Canaveral Weather History for the Previous 24 Hours

Scroll right to see more
 ConditionsComfort  
Time TempWeatherWind HumidityBarometerVisibility
11:58 pm
Mon, Apr 24
67 °FClear.16 mph69%29.75 "Hg10 mi
10:58 pm69 °FClear.13 mph65%29.73 "Hg10 mi
9:58 pm72 °FClear.16 mph58%29.72 "Hg10 mi
8:58 pm74 °FClear.15 mph54%29.71 "Hg10 mi
7:58 pm77 °FClear.16 mph46%29.69 "Hg10 mi
6:58 pm81 °FSunny.21 mph43%29.67 "Hg10 mi
5:58 pm85 °FSunny.18 mph40%29.65 "Hg10 mi
4:58 pm87 °FSunny.22 mph37%29.64 "Hg10 mi
3:58 pm89 °FSunny.23 mph37%29.64 "Hg10 mi
2:58 pm89 °FPassing clouds.18 mph40%29.67 "Hg10 mi
1:58 pm87 °FPassing clouds.13 mph48%29.69 "Hg10 mi
1:36 pm86 °FScattered clouds.18 mph49%29.70 "Hg10 mi
12:58 pm85 °FScattered clouds.18 mph50%29.71 "Hg10 mi
11:58 am85 °FBroken clouds.10 mph48%29.73 "Hg10 mi
10:58 am82 °FSunny.9 mph54%29.74 "Hg10 mi
9:58 am79 °FPassing clouds.9 mph65%29.75 "Hg10 mi
8:58 am74 °FPassing clouds.5 mph80%29.74 "Hg10 mi
7:58 am71 °FMore clouds than sun.6 mph91%29.74 "Hg10 mi
7:33 am70 °FPartly sunny.6 mph94%29.74 "Hg10 mi
6:58 am68 °FSunny.5 mph92%29.73 "Hg10 mi
5:58 am69 °FClear.5 mph92%29.73 "Hg10 mi
4:58 am68 °FClear.3 mph91%29.73 "Hg10 mi
3:58 am70 °FPassing clouds.6 mph90%29.74 "Hg10 mi
3:03 am68 °FPassing clouds.No wind88%29.74 "Hg10 mi
1:58 am67 °FClear.No wind84%29.77 "Hg10 mi
1:13 am68 °FPassing clouds.No wind88%29.79 "Hg10 mi
Weather by CustomWeather, © 2017

See weather overviewHow to use our weather pages